Regional Weather Roundup
Issued by NWS

Home | Current Version | Previous Version | Graphics & Text | Print | Product List | Glossary On
Versions: 1 2 3 4 5 6 7 8 9 10 11 12 13 14 15 16 17 18 19 20 21 22 23 24 25 26 27 28 29 30 31 32 33 34 35 36 37 38 39 40 41 42 43 44 45 46 47 48 49 50
000
ASUS43 KDMX 280406
RWRIA

WEATHER ROUNDUP FOR IOWA
NATIONAL WEATHER SERVICE DES MOINES IA
1100 PM CDT MON MAR 27 2017

NOTE: "FAIR" INDICATES FEW OR NO CLOUDS BELOW 12,000 FEET WITH NO
SIGNIFICANT WEATHER AND/OR OBSTRUCTIONS TO VISIBILITY.

* - THESE STATIONS ARE NOT NWS STATIONS...THUS NOT UNDER NWS
QUALITY CONTROL.  THEY ALSO DO NOT REPORT WEATHER SUCH
AS PRECIPITATION OR FOG.

IAZ001>003-012>014-020>022-031>034-043>046-280500-
   NORTHWEST IOWA

CITY           SKY/WX    TMP DP  RH WIND       PRES   REMARKS
CARROLL *      CLOUDY    46  45  93 NE6       30.01R
CHEROKEE *     CLOUDY    43  40  88 NE3       30.01S
DENISON *      CLOUDY    46  41  81 NE6       30.03R
LE MARS *      CLEAR     37  36  93 CALM      30.03R
ORANGE CITY *  CLEAR     39  37  93 CALM      30.02R
SHELDON *      PTCLDY    39  36  87 CALM      30.00S
SIOUX CITY     CLEAR     40  38  93 CALM      30.02
SPENCER        CLEAR     42  39  89 CALM      30.01R
STORM LAKE *   CLOUDY    46  41  81 NE3       30.01R
$$

IAZ055>058-069>071-079>083-090>094-280500-
   SOUTHWEST IOWA

CITY           SKY/WX    TMP DP  RH WIND       PRES   REMARKS
ATLANTIC *     CLOUDY    46  43  87 NE6       30.01R
AUDUBON *      CLOUDY    46  39  76 CALM      30.02R
CLARINDA *     CLOUDY    48  45  87 CALM      30.03R
COUNCIL BLFS * CLOUDY    45  41  87 CALM      30.02R
CRESTON *      CLOUDY    46  41  81 NE8       30.01S
HARLAN  *      CLOUDY    45  43  93 CALM      30.04R
LAMONI         CLOUDY    47  43  86 NE6       30.00
RED OAK *      CLOUDY    48  41  76 NE5       30.02R
SHENANDOAH *   CLOUDY    46  45  93 CALM      30.02R
$$

IAZ047>049-059>061-072>074-084-280500-
   CENTRAL IOWA

CITY           SKY/WX    TMP DP  RH WIND       PRES   REMARKS
AMES           CLOUDY    47  43  86 SE3       30.01
ANKENY *       CLOUDY    46  43  87 N5        30.03R
BOONE *        CLOUDY    46  45  93 NE5       30.00S
CHARITON *     CLOUDY    46  45  93 CALM      30.00R
DES MOINES     CLOUDY    48  41  76 N5        30.01R
GRINNELL*      CLOUDY    45  42  88 N5        30.01S
MARSHALLTOWN   CLOUDY    46  42  86 N3        30.00
NEWTON *       CLOUDY    46  41  81 N7G13     30.00R
PELLA *        CLOUDY    47  43  87 N3        30.02R
PERRY *        CLOUDY    46  42  88 CALM      30.01S
$$

IAZ004>006-015-016-023>025-035-036-280500-
   NORTH CENTRAL IOWA

CITY           SKY/WX    TMP DP  RH WIND       PRES   REMARKS
ALGONA *       CLEAR     41  41 100 CALM      30.00F
CLARION *      CLEAR     37  37 100 NE6       30.01S WCI  33
ESTHERVILLE    CLEAR     37  37 100 W3        30.00
FORT DODGE *   CLEAR     39  34  81 NE3       30.01S
MASON CITY     PTCLDY    36  35  96 W3        30.02R FOG
FOREST CITY *    N/A     32  30  93 CALM      30.01S FOG
WEBSTER CITY * CLOUDY    45  43  93 NE5       29.99S
IOWA FALLS *   CLOUDY    46  42  87 N3        30.02R
$$

IAZ007>011-017>019-026>030-037>042-050>054-066-280500-
   NORTHEAST IOWA

CITY           SKY/WX    TMP DP  RH WIND       PRES   REMARKS
CEDAR RAPIDS   CLOUDY    47  46  97 NW3       29.99
CHARLES CITY * CLOUDY    45  45 100 CALM      30.01R
CLINTON *      CLOUDY    48  46  93 N5        29.99R
DECORAH *      CLOUDY    45  41  87 N5        29.99S
DUBUQUE        CLOUDY    46  44  93 N3        29.98S
MONTICELLO *   CLOUDY    48  45  87 CALM      29.99R
OELWEIN *      CLOUDY    45  45 100 CALM      30.00S
WATERLOO       CLOUDY    45  41  86 NW5       30.00S
$$

IAZ064-065-067-068-078-280500-
   EAST CENTRAL IOWA

CITY           SKY/WX    TMP DP  RH WIND       PRES   REMARKS
DAVENPORT      CLOUDY    48  46  93 CALM      29.98R
IOWA CITY      CLOUDY    50  46  86 N6        30.00
MUSCATINE *    CLOUDY    50  46  87 NW3       29.99R
QUAD CITIES    CLOUDY    50  45  83 N3        29.98R
$$

IAZ062-063-075>077-085>089-095>099-280500-
   SOUTHEAST IOWA

CITY           SKY/WX    TMP DP  RH WIND       PRES   REMARKS
BURLINGTON     CLOUDY    50  48  93 N6        29.97R
FAIRFIELD *    CLOUDY    48  46  93 N7        29.99S FOG
FORT MADISON * CLOUDY    50  48  93 N3        29.98S
KEOKUK *       CLOUDY    50  48  93 N5        29.97S
OSKALOOSA *    CLOUDY    46  44  90 N5        30.00S
CENTERVILLE *  CLOUDY    46  46 100 CALM      30.01S
OTTUMWA        CLOUDY    48  46  93 N7        29.99R
WASHINGTON *   CLOUDY    48  48 100 N7        30.00R FOG
$$

ABBREVIATIONS USED IN REMARKS
   TC - TEMPERATURES IN CELSIUS
  WCI - WIND CHILL INDEX
   HX - HEAT INDEX
  VSB - VISIBILITY
$$





USA.gov is the U.S. government's official web portal to all federal, state and local government web resources and services.